Location: Mahannah Oil Field
(37.4664°N, 96.6003°W)
Time: 01:58:46
(UTC+00:00)

Tiros 1 despin weight - Pass Details

Date: 31 January 2021
Orbit: 593 x 642 km, 48.2° (Epoch: 25 February)

Event Time Altitude Azimuth Distance (km) Brightness Sun altitude
Rises 16:47:45 0° 216° (SW) 2,922 ? 29.3°
Reaches altitude 10° 16:50:10 10° 209° (SSW) 2,012 ? 29.6°
Maximum altitude 16:54:32 42° 139° (SE) 895 ? 30.0°
Drops below altitude 10° 16:58:53 10° 68° (ENE) 1,997 ? 30.4°
Sets 17:01:16 0° 61° (ENE) 2,898 ? 30.6°
